This is the latest recevied weather packets stored in our database for station/object DC4AT. If no packets are shown the sender has not sent any weather packets the latest 10 day(s).
| Time | Temp. | Humidity | Pressure | Rain* | Wind** | Luminosity | Snow |
|---|---|---|---|---|---|---|---|
| 1777323238 | 10° C | 56% | 1022.3 hPa | 0 mm | - | 0 W/m² | - |
| 1777322638 | 10° C | 56% | 1022.5 hPa | 0 mm | - | 0 W/m² | - |
| 1777322039 | 10° C | 56% | 1022.4 hPa | 0 mm | - | 0 W/m² | - |
| 1777321439 | 10° C | 56% | 1022.4 hPa | 0 mm | - | 0 W/m² | - |
| 1777320839 | 10.56° C | 55% | 1022.4 hPa | 0 mm | - | 0 W/m² | - |
| 1777320239 | 10.56° C | 54% | 1022.2 hPa | 0 mm | - | 0 W/m² | - |
| 1777319639 | 10.56° C | 55% | 1022.3 hPa | 0 mm | - | 0 W/m² | - |
| 1777319039 | 11.11° C | 53% | 1022.3 hPa | 0 mm | - | 0 W/m² | - |
| 1777318439 | 11.11° C | 52% | 1022.2 hPa | 0 mm | - | 0 W/m² | - |
| 1777317839 | 11.67° C | 50% | 1022.3 hPa | 0 mm | - | 0 W/m² | - |
| 1777317239 | 11.67° C | 49% | 1022.3 hPa | 0 mm | - | 0 W/m² | - |
| 1777316639 | 11.67° C | 49% | 1022.2 hPa | 0 mm | - | 0 W/m² | - |
| 1777316039 | 11.11° C | 51% | 1022.2 hPa | 0 mm | - | 0 W/m² | - |
| 1777315439 | 11.11° C | 50% | 1022.1 hPa | 0 mm | - | 0 W/m² | - |
| 1777314839 | 12.22° C | 47% | 1022 hPa | 0 mm | - | 0 W/m² | - |
| 1777314239 | 12.22° C | 48% | 1021.9 hPa | 0 mm | - | 5 W/m² | - |
| 1777313639 | 12.78° C | 49% | 1022 hPa | 0 mm | - | 12 W/m² | - |
| 1777313039 | 12.78° C | 49% | 1021.9 hPa | 0 mm | - | 16 W/m² | - |
| 1777312439 | 13.33° C | 50% | 1021.9 hPa | 0 mm | - | 26 W/m² | - |
| 1777311839 | 13.33° C | 49% | 1021.8 hPa | 0 mm | - | 35 W/m² | - |
| 1777311239 | 13.89° C | 51% | 1022 hPa | 0 mm | - | 40 W/m² | - |
| 1777310639 | 13.89° C | 49% | 1021.9 hPa | 0 mm | - | 53 W/m² | - |
| 1777310039 | 14.44° C | 48% | 1021.8 hPa | 0 mm | - | 102 W/m² | - |
| 1777309439 | 14.44° C | 47% | 1021.8 hPa | 0 mm | - | 109 W/m² | - |
| 1777308839 | 14.44° C | 46% | 1021.8 hPa | 0 mm | - | 104 W/m² | - |
* Rain latest hour (hover to see other rain measurements)
** Current wind speed in m/s (hover to see current wind gust speed)